Time,TemperatureF,DewpointF,PressureIn,WindDirection,WindDirectionDegrees,WindSpeedMPH,WindSpeedGustMPH,Humidity,HourlyPrecipIn,Conditions,Clouds,dailyrainin,SolarRadiationWatts/m^2,SoftwareType,DateUTC
2013-02-28 01:00:00,26.0,15.0,30.17,West,270,11.0,-999.0,62,-99.99,,,-99.99,0.000000,,2013-02-28 08:00:00,
2013-02-28 01:53:00,26.0,15.0,30.17,West,270,11.0,-999.0,62,-99.99,,,-99.99,0.000000,,2013-02-28 08:53:00,
2013-02-28 02:00:00,23.0,15.0,30.17,West,265,8.0,-999.0,71,-99.99,,,-99.99,0.000000,,2013-02-28 09:00:00,
2013-02-28 02:52:00,23.0,15.0,30.17,West,265,8.0,-999.0,71,-99.99,,,-99.99,0.000000,,2013-02-28 09:52:00,
2013-02-28 03:00:00,20.0,14.0,30.17,SW,234,6.0,-999.0,77,-99.99,,,-99.99,0.000000,,2013-02-28 10:00:00,
2013-02-28 03:52:00,20.0,14.0,30.17,SW,234,6.0,-999.0,77,-99.99,,,-99.99,0.000000,,2013-02-28 10:52:00,
2013-02-28 04:00:00,23.0,16.0,30.17,SW,230,5.0,-999.0,72,-99.99,,,-99.99,0.000000,,2013-02-28 11:00:00,
2013-02-28 04:52:00,23.0,16.0,30.17,SW,230,5.0,-999.0,72,-99.99,,,-99.99,0.000000,,2013-02-28 11:52:00,
2013-02-28 05:00:00,25.0,18.0,30.17,SW,219,3.0,-999.0,76,-99.99,,,-99.99,0.000000,,2013-02-28 12:00:00,
2013-02-28 05:52:00,25.0,18.0,30.17,SW,219,3.0,-999.0,76,-99.99,,,-99.99,0.000000,,2013-02-28 12:52:00,
2013-02-28 06:00:00,22.0,18.0,30.17,SW,233,3.0,-999.0,82,-99.99,,,-99.99,0.000000,,2013-02-28 13:00:00,
2013-02-28 06:52:00,22.0,18.0,30.17,SW,233,3.0,-999.0,82,-99.99,,,-99.99,0.000000,,2013-02-28 13:52:00,
2013-02-28 07:00:00,27.0,21.0,30.18,West,271,5.0,-999.0,77,-99.99,,,-99.99,0.310000,,2013-02-28 14:00:00,
2013-02-28 07:52:00,27.0,21.0,30.18,West,271,5.0,-999.0,77,-99.99,,,-99.99,0.310000,,2013-02-28 14:52:00,
2013-02-28 08:00:00,29.0,22.0,30.17,West,263,3.0,-999.0,77,-99.99,,,-99.99,12.760000,,2013-02-28 15:00:00,
2013-02-28 08:52:00,29.0,22.0,30.17,West,263,3.0,-999.0,77,-99.99,,,-99.99,12.760000,,2013-02-28 15:52:00,
2013-02-28 09:00:00,31.0,22.0,30.18,SW,227,4.0,-999.0,69,-99.99,,,-99.99,84.599998,,2013-02-28 16:00:00,
2013-02-28 09:52:00,31.0,22.0,30.18,SW,227,4.0,-999.0,69,-99.99,,,-99.99,84.599998,,2013-02-28 16:52:00,
2013-02-28 10:00:00,36.0,22.0,30.19,WSW,256,9.0,-999.0,57,-99.99,,,-99.99,181.100006,,2013-02-28 17:00:00,
2013-02-28 10:52:00,36.0,22.0,30.19,WSW,256,9.0,-999.0,57,-99.99,,,-99.99,181.100006,,2013-02-28 17:52:00,
2013-02-28 12:00:00,38.0,20.0,30.19,WNW,292,17.0,-999.0,48,-99.99,,,-99.99,506.299988,,2013-02-28 19:00:00,
2013-02-28 12:52:00,38.0,20.0,30.19,WNW,292,17.0,-999.0,48,-99.99,,,-99.99,506.299988,,2013-02-28 19:52:00,
2013-02-28 13:00:00,40.0,21.0,30.17,WNW,294,18.0,-999.0,46,-99.99,,,-99.99,650.700012,,2013-02-28 20:00:00,
2013-02-28 13:52:00,40.0,21.0,30.17,WNW,294,18.0,-999.0,46,-99.99,,,-99.99,650.700012,,2013-02-28 20:52:00,
2013-02-28 14:00:00,40.0,20.0,30.18,NW,306,21.0,-999.0,44,-99.99,,,-99.99,542.099976,,2013-02-28 21:00:00,
2013-02-28 14:52:00,40.0,20.0,30.18,NW,306,21.0,-999.0,44,-99.99,,,-99.99,542.099976,,2013-02-28 21:52:00,
2013-02-28 15:00:00,41.0,22.0,30.19,WNW,299,20.0,-999.0,46,-99.99,,,-99.99,453.700012,,2013-02-28 22:00:00,
2013-02-28 15:52:00,41.0,22.0,30.19,WNW,299,20.0,-999.0,46,-99.99,,,-99.99,453.700012,,2013-02-28 22:52:00,
2013-02-28 16:00:00,41.0,21.0,30.19,WNW,292,19.0,-999.0,45,-99.99,,,-99.99,327.799988,,2013-02-28 23:00:00,
2013-02-28 16:53:00,41.0,21.0,30.19,WNW,292,19.0,-999.0,45,-99.99,,,-99.99,327.799988,,2013-02-28 23:53:00,
2013-02-28 17:00:00,39.0,21.0,30.21,WNW,297,15.0,-999.0,48,-99.99,,,-99.99,171.399994,,2013-03-01 00:00:00,
2013-02-28 17:52:00,39.0,21.0,30.21,WNW,297,15.0,-999.0,48,-99.99,,,-99.99,171.399994,,2013-03-01 00:52:00,
2013-02-28 18:00:00,36.0,24.0,30.22,WNW,300,8.0,-999.0,62,-99.99,,,-99.99,47.080002,,2013-03-01 01:00:00,
2013-02-28 18:52:00,36.0,24.0,30.22,WNW,300,8.0,-999.0,62,-99.99,,,-99.99,47.080002,,2013-03-01 01:52:00,
2013-02-28 19:00:00,32.0,23.0,30.24,NW,317,5.0,-999.0,69,-99.99,,,-99.99,0.720000,,2013-03-01 02:00:00,
2013-02-28 19:52:00,32.0,23.0,30.24,NW,317,5.0,-999.0,69,-99.99,,,-99.99,0.720000,,2013-03-01 02:52:00,
2013-02-28 20:00:00,30.0,24.0,30.24,WNW,288,1.0,-999.0,78,-99.99,,,-99.99,0.100000,,2013-03-01 03:00:00,
2013-02-28 20:52:00,30.0,24.0,30.24,WNW,288,1.0,-999.0,78,-99.99,,,-99.99,0.100000,,2013-03-01 03:52:00,
2013-02-28 21:00:00,32.0,23.0,30.24,West,265,2.0,-999.0,69,-99.99,,,-99.99,0.050000,,2013-03-01 04:00:00,
2013-02-28 21:52:00,32.0,23.0,30.24,West,265,2.0,-999.0,69,-99.99,,,-99.99,0.050000,,2013-03-01 04:52:00,
2013-02-28 22:00:00,28.0,22.0,30.24,SW,219,2.0,-999.0,77,-99.99,,,-99.99,0.030000,,2013-03-01 05:00:00,
2013-02-28 22:52:00,28.0,22.0,30.24,SW,219,2.0,-999.0,77,-99.99,,,-99.99,0.030000,,2013-03-01 05:52:00,
2013-02-28 23:00:00,27.0,20.0,30.23,SW,221,2.0,-999.0,76,-99.99,,,-99.99,0.010000,,2013-03-01 06:00:00,
2013-02-28 23:52:00,27.0,20.0,30.23,SW,221,2.0,-999.0,76,-99.99,,,-99.99,0.010000,,2013-03-01 06:52:00,